FW5493 Weather Reports


Display with metric or nautical units.
time (UTC)temp
F
wind
direction
speed
MPH
gust
MPH
rain 1hr
in
rain 24hr
in
rain mn
in
humidity
%
barometer
mb
20260831233036 79 219 5.0 10.0 0.00 0.00 0.00 27 1016.3
20260831231538 79 0 2.0 8.0 0.00 0.00 0.00 28 1016.4
20260831230038 78 71 3.0 13.0 0.00 0.00 0.00 28 1016.4
20260831224536 78 157 5.0 11.0 0.00 0.00 0.00 28 1016.5
20260831223039 78 297 2.0 8.0 0.00 0.00 0.00 28 1016.6
20260831221540 78 183 5.0 11.0 0.00 0.00 0.00 29 1016.7
20260831220037 77 142 6.0 11.0 0.00 0.00 0.00 29 1016.6
20260831214537 77 171 4.0 14.0 0.00 0.00 0.00 29 1016.8
20260831213036 77 316 4.0 13.0 0.00 0.00 0.00 28 1017.1
20260831211533 76 191 4.0 14.0 0.00 0.00 0.00 31 1017.2
20260831210036 75 132 2.0 10.0 0.00 0.00 0.00 30 1017.4
20260831204534 75 292 4.0 9.0 0.00 0.00 0.00 32 1017.6
20260831203037 74 165 5.0 16.0 0.00 0.00 0.00 33 1017.7
20260831201535 73 225 6.0 15.0 0.00 0.00 0.00 37 1017.9
20260831200036 72 188 6.0 14.0 0.00 0.00 0.00 35 1018.1
20260831194534 73 323 5.0 15.0 0.00 0.00 0.00 33 1018.2
20260831193041 71 309 5.0 11.0 0.00 0.00 0.00 36 1018.4
20260831191539 71 161 5.0 12.0 0.00 0.00 0.00 35 1018.7
20260831190104 71 251 6.0 13.0 0.00 0.00 0.00 36 1019.1
20260831184534 70 188 3.0 11.0 0.00 0.00 0.00 38 1019.3
20260831183038 70 148 5.0 13.0 0.00 0.00 0.00 36 1019.4
20260831181544 69 150 1.0 10.0 0.00 0.00 0.00 40 1019.5
20260831180037 69 200 3.0 8.0 0.00 0.00 0.00 41 1019.6
20260831174537 68 291 3.0 11.0 0.00 0.00 0.00 39 1019.7
20260831173034 68 321 6.0 9.0 0.00 0.00 0.00 39 1019.9
20260831171536 67 9 2.0 7.0 0.00 0.00 0.00 39 1019.9
20260831170035 68 139 3.0 7.0 0.00 0.00 0.00 39 1020.0
20260831164544 66 0 2.0 9.0 0.00 0.00 0.00 40 1020.0
20260831163038 65 268 5.0 14.0 0.00 0.00 0.00 41 1020.0
20260831161536 65 225 5.0 10.0 0.00 0.00 0.00 43 1020.1
20260831160035 64 285 6.0 11.0 0.00 0.00 0.00 44 1020.1
20260831154613 63 252 6.0 14.0 0.00 0.00 0.00 44 1020.1
20260831153036 61 306 2.0 4.0 0.00 0.00 0.00 53 1020.1
20260831151616 59 344 1.0 3.0 0.00 0.00 0.00 56 1020.2
20260831150034 57 41 0.0 3.0 0.00 0.00 0.00 59 1019.9
20260831144534 55 58 1.0 4.0 0.00 0.00 0.00 61 1019.8
20260831143039 53 58 2.0 4.0 0.00 0.00 0.00 64 1019.7
20260831141534 51 0 0.0 2.0 0.00 0.00 0.00 65 1019.7
20260831140038 50 0 0.0 3.0 0.00 0.00 0.00 68 1019.4
20260831134534 49 0 0.0 0.0 0.00 0.00 0.00 70 1019.3
20260831133036 48 0 0.0 0.0 0.00 0.00 0.00 68 1019.1
20260831131542 47 0 0.0 0.0 0.00 0.00 0.00 68 1018.9
20260831130034 47 0 0.0 3.0 0.00 0.00 0.00 67 1018.7
20260831124535 47 281 0.0 3.0 0.00 0.00 0.00 65 1018.5
20260831123036 48 0 1.0 3.0 0.00 0.00 0.00 65 1018.5
20260831121536 48 0 0.0 6.0 0.00 0.00 0.00 65 1018.6
20260831120040 46 271 1.0 4.0 0.00 0.00 0.00 66 1018.5
20260831114540 47 0 0.0 0.0 0.00 0.00 0.00 66 1018.6
20260831113042 47 0 0.0 2.0 0.00 0.00 0.00 66 1018.4
20260831111537 48 0 0.0 0.0 0.00 0.00 0.00 64 1018.4
20260831110038 49 0 0.0 0.0 0.00 0.00 0.00 62 1018.3
20260831104550 49 0 0.0 4.0 0.00 0.00 0.00 61 1018.3
20260831103038 47 0 0.0 4.0 0.00 0.00 0.00 65 1018.1
20260831101544 48 17 0.0 3.0 0.00 0.00 0.00 64 1018.0
20260831100037 48 0 0.0 4.0 0.00 0.00 0.00 62 1017.7
20260831094543 49 23 0.0 4.0 0.00 0.01 0.00 61 1017.7
20260831093101 50 304 2.0 6.0 0.00 0.01 0.00 58 1017.6
20260831091546 52 269 3.0 9.0 0.00 0.01 0.00 56 1017.4
20260831090036 50 243 2.0 7.0 0.00 0.01 0.00 58 1017.5
20260831084622 50 221 5.0 10.0 0.00 0.01 0.00 59 1017.4
20260831083038 49 238 1.0 4.0 0.00 0.01 0.00 60 1017.4
20260831081535 51 238 3.0 7.0 0.00 0.01 0.00 57 1017.5
20260831080043 52 259 5.0 12.0 0.00 0.01 0.00 55 1017.4
20260831074546 51 236 8.0 13.0 0.00 0.03 0.00 56 1017.4
20260831073037 50 290 6.0 9.0 0.00 0.03 0.00 61 1017.5
20260831071544 49 278 5.0 8.0 0.00 0.03 0.00 61 1017.5
20260831070036 51 295 5.0 10.0 0.00 0.03 0.00 56 1017.5
20260831064545 55 236 5.0 12.0 0.00 0.07 0.00 50 1017.5
20260831063043 55 261 6.0 12.0 0.00 0.07 0.00 49 1017.5
20260831061533 56 242 8.0 14.0 0.00 0.07 0.00 47 1017.7
20260831060040 56 254 8.0 14.0 0.00 0.07 0.00 47 1017.5
20260831054536 56 269 10.0 16.0 0.00 0.17 0.07 47 1017.6
20260831053052 56 261 9.0 15.0 0.00 0.17 0.07 48 1017.7
20260831051540 55 265 7.0 11.0 0.00 0.17 0.07 49 1017.8
20260831050039 55 273 4.0 10.0 0.00 0.17 0.07 49 1018.0
20260831044535 56 252 3.0 9.0 0.00 0.17 0.07 49 1018.1
20260831043043 57 261 8.0 14.0 0.00 0.17 0.07 47 1017.8
20260831041543 56 234 7.0 15.0 0.00 0.17 0.07 49 1017.4
20260831040042 56 238 8.0 12.0 0.00 0.17 0.07 49 1017.1
20260831034541 57 268 6.0 12.0 0.00 0.17 0.07 49 1017.0
20260831033046 56 273 7.0 11.0 0.00 0.17 0.07 50 1017.1
20260831031534 57 276 5.0 11.0 0.00 0.17 0.07 49 1016.6
20260831030046 58 274 7.0 12.0 0.00 0.17 0.07 47 1016.4
20260831024546 58 277 7.0 11.0 0.00 0.17 0.07 48 1016.1
20260831023040 60 301 5.0 17.0 0.00 0.17 0.07 45 1015.9
20260831021536 61 284 9.0 15.0 0.00 0.17 0.07 43 1015.4
20260831020036 62 271 12.0 21.0 0.00 0.17 0.07 40 1015.2
20260831014540 63 287 14.0 23.0 0.00 0.17 0.07 39 1015.0
20260831013035 64 261 14.0 21.0 0.00 0.17 0.07 38 1015.0
20260831011534 65 260 10.0 19.0 0.00 0.17 0.07 39 1015.3
20260831010036 65 273 13.0 20.0 0.00 0.17 0.07 37 1015.3
20260831004542 66 298 14.0 20.0 0.00 0.17 0.07 37 1015.3
20260831003036 66 273 11.0 22.0 0.00 0.17 0.07 38 1015.3
20260831001540 67 269 15.0 27.0 0.00 0.17 0.07 36 1015.2
20260831000037 67 278 17.0 28.0 0.00 0.17 0.07 35 1015.3
20260830234534 67 273 16.0 28.0 0.00 0.17 0.07 35 1015.2